Regional Weather Roundup
Issued by NWS Sioux Falls, SD

Home | Current Version | Previous Version | Text Only | Print | Product List | Glossary On
Versions: 1 2 3 4 5 6 7 8 9 10 11 12 13 14 15 16 17 18 19 20 21 22 23 24 25 26 27 28 29 30 31 32 33 34 35 36 37 38 39 40 41 42 43 44 45 46 47 48 49 50
000
ASUS43 KFSD 220810
RWRFSD

WEATHER ROUNDUP FOR SE SOUTH DAKOTA/SW MINNESOTA/NW IOWA
NATIONAL WEATHER SERVICE SIOUX FALLS SD
200 AM CST MON JAN 22 2018

NOTE: "FAIR" INDICATES FEW OR NO CLOUDS BELOW 12,000 FEET WITH NO
SIGNIFICANT WEATHER AND OR OBSTRUCTIONS TO VISIBILITY.


SDZ038>040-050-052>070-220900-
SOUTHEAST SOUTH DAKOTA

CITY           SKY/WX    TMP DP  RH WIND       PRES   REMARKS
BROOKINGS      FLURRIES  27  25  92 N16       29.86S WCI  15
CHAMBERLAIN    CLOUDY    28  28  98 N14       29.91F WCI  17
HURON          CLOUDY    25  23  92 N14       29.93R WCI  13
MADISON        MIX PCPN  28  28 100 N20       29.84S WCI  15
MITCHELL       LGT SNOW  29  27  92 N16       29.89R FOG     WCI  17
SIOUX FALLS    LGT SNOW  30  29  96 N24G31    29.78F FOG     WCI  16
WINNER         CLOUDY    29  26  89 N18       29.90F FOG     WCI  16
YANKTON        LGT RAIN  33  31  92 N23G30    29.75F WCI  21
$$

MNZ071-072-080-081-089-090-097-098-220900-
SOUTHWEST MINNESOTA

CITY           SKY/WX    TMP DP  RH WIND       PRES   REMARKS
FAIRMONT       LGT RAIN  35  30  82 N14       29.78F WCI  26
JACKSON        CLOUDY    32  30  93 N16G22    29.78S WCI  21
LUVERNE        CLOUDY    32  28  86 N20G26    29.78F WCI  20
MARSHALL       LGT SNOW  29  28  96 N15       29.88F FOG     WCI  18
MONTEVIDEO     CLOUDY    28  27  93 NE9G16    29.93S WCI  20
PIPESTONE        N/A     28  27  93 NE21      29.81S WCI  15
REDWOOD FALLS  CLOUDY    32  28  85 N16G28    29.83F WCI  21
TRACY          CLOUDY    32  31  94 N16G24    29.83R WCI  21
WINDOM         CLOUDY    34  18  51 N15       29.81R WCI  24
$$

IAZ001>003-012>014-020>022-031-032-NEZ013-014-SDZ071-220900-
NORTHWEST IOWA

CITY           SKY/WX    TMP DP  RH WIND       PRES   REMARKS
CHEROKEE       LGT RAIN  34  33  97 NE23G33   29.64F WCI  22
DENISON        CLOUDY    36  36 100 NE18G35   29.58S FOG
ESTHERVILLE    LGT SNOW  32  31  96 N20       29.75S FOG     WCI  20
LE MARS        LGT SNOW  34  30  86 N20G26    29.68F WCI  22
ORANGE CITY    CLOUDY    36  32  87 NE14G22   29.70F
SHELDON        CLOUDY    34  30  86 NE21G29   29.71F WCI  22
SIOUX CITY     LGT SNOW  33  32  96 N18G28    29.64F FOG     WCI  22
SPENCER        LGT SNOW  35  30  82 NE25      29.72F WCI  23
STORM LAKE     MIX PCPN  34  32  93 NE30      29.60F WCI  20
$$

ABBREVIATIONS USED IN REMARKS
   TC - TEMPERATURE IN CELSIUS
  WCI - WIND CHILL INDEX
   HX - HEAT INDEX
  VSB - VISIBILITY





USA.gov is the U.S. government's official web portal to all federal, state and local government web resources and services.